Weather History for Eagle River, WI

Change the Weather History Date:

Wednesday, March 19, 2014

  Actual Average Record
Temperature  
Mean Temperature 28 °F -  
Max Temperature 32 °F 38 °F 77 °F (2012)
Min Temperature 24 °F 11 °F 3 °F (1993)
Degree Days  
Heating Degree Days 37    
Moisture  
Dew Point 25 °F    
Average Humidity 89    
Maximum Humidity 100    
Minimum Humidity 77    
Precipitation  
Precipitation 0.10 in - - ()
Sea Level Pressure  
Sea Level Pressure 29.72 in    
Wind  
Wind Speed 8 mph (NNW)    
Max Wind Speed 16 mph    
Max Gust Speed 23 mph    
Visibility 4 miles    
Events Snow    
Averages and records for this station are not official NWS values.
T = Trace of Precipitation, MM = Missing Value Source: NWS Daily Summary

Daily Weather History Graph

Daily Weather History Graph

Search for Another Location

Airport:

Trip Planner

Search our weather history database for the weather conditions in past years. The results will help you decide how hot, cold, wet, or windy it might be!

Date:

Astronomy

Mar. 19, 2014 Rise Set
Actual Time 7:01 AM CDT 7:08 PM CDT
Civil Twilight 6:32 AM CDT 7:38 PM CDT
Nautical Twilight 5:57 AM CDT 8:13 PM CDT
Astronomical Twilight 5:21 AM CDT 8:49 PM CDT
Moon 10:38 PM CDT (3/19) 8:17 AM CDT (3/19)
Length of Visible Light 13h 05m
Length of Day
12h 06m
Waning Gibbous, 91% of the Moon is Illuminated
Mar 19
Waning Gibbous
Mar 23
Last Quarter
Mar 30
New
Apr 7
First Quarter
Apr 15
Full

Hourly Weather History & Observations

Time (CDT) Temp. Windchill Dew Point Humidity Pressure Visibility Wind Dir Wind Speed Gust Speed Precip Events Conditions
12:15 AM 28.0 °F 20.0 °F 27.3 °F 97% 29.79 in 2.0 mi SE 8.1 mph - N/A Snow Light Snow
12:35 AM 28.0 °F 20.0 °F 27.3 °F 97% 29.78 in 1.8 mi ESE 8.1 mph - N/A Snow Light Snow
12:55 AM 28.0 °F 20.0 °F 27.0 °F 96% 29.76 in 3.0 mi ESE 8.1 mph - N/A Snow Light Snow
1:15 AM 28.0 °F 20.0 °F 26.6 °F 94% 29.75 in 7.0 mi ESE 8.1 mph 17.3 mph N/A Snow Light Snow
1:35 AM 28.2 °F 20.2 °F 26.8 °F 94% 29.74 in 7.0 mi ESE 8.1 mph - N/A   Overcast
1:55 AM 28.2 °F 20.2 °F 27.0 °F 95% 29.73 in 7.0 mi ESE 8.1 mph - N/A Snow Light Snow
2:15 AM 28.2 °F 21.0 °F 27.0 °F 95% 29.72 in 5.0 mi ESE 6.9 mph - N/A Snow Light Snow
2:35 AM 28.4 °F 20.4 °F 27.3 °F 96% 29.72 in 5.0 mi East 8.1 mph - N/A Snow Light Snow
2:55 AM 28.8 °F 21.7 °F 27.5 °F 95% 29.71 in 5.0 mi East 6.9 mph - N/A   Overcast
3:15 AM 28.8 °F 23.7 °F 27.5 °F 95% 29.70 in 7.0 mi East 4.6 mph - N/A   Overcast
3:35 AM 28.6 °F 24.8 °F 27.5 °F 96% 29.69 in 7.0 mi ENE 3.5 mph - N/A   Overcast
3:55 AM 28.4 °F 24.6 °F 27.3 °F 96% 29.68 in 5.0 mi NNE 3.5 mph - N/A Snow Light Snow
4:15 AM 28.4 °F 23.3 °F 27.5 °F 96% 29.68 in 7.0 mi NNE 4.6 mph - N/A   Mostly Cloudy
4:35 AM 28.0 °F - 27.5 °F 98% 29.68 in 3.0 mi Calm Calm - N/A Snow Light Snow
4:55 AM 27.9 °F - 27.5 °F 99% 29.68 in 4.0 mi Calm Calm - N/A   Mostly Cloudy
5:15 AM 27.9 °F - 27.5 °F 99% 29.68 in 5.0 mi Calm Calm - N/A   Mostly Cloudy
5:35 AM 27.5 °F 22.2 °F 27.3 °F 99% 29.68 in 4.0 mi North 4.6 mph - N/A Snow Light Snow
5:55 AM 28.0 °F 21.7 °F 27.7 °F 99% 29.68 in 2.5 mi North 5.8 mph - N/A Snow Light Snow
6:15 AM 27.9 °F 22.6 °F 27.5 °F 99% 29.68 in 2.0 mi North 4.6 mph - N/A Snow Light Snow
6:35 AM 27.7 °F 22.4 °F 27.5 °F 99% 29.67 in 3.0 mi North 4.6 mph - N/A Snow Light Snow
6:55 AM 27.5 °F 21.1 °F 27.5 °F 100% 29.68 in 3.0 mi North 5.8 mph - N/A   Clear
7:15 AM 27.9 °F 21.5 °F 27.5 °F 99% 29.68 in 4.0 mi North 5.8 mph - N/A Snow Light Snow
7:35 AM 28.0 °F 24.2 °F 27.5 °F 98% 29.68 in 4.0 mi North 3.5 mph - N/A Snow Light Snow
7:55 AM 28.0 °F 21.7 °F 27.5 °F 98% 29.67 in 2.5 mi North 5.8 mph - N/A Snow Light Snow
8:15 AM 28.4 °F 22.2 °F 27.5 °F 96% 29.67 in 1.8 mi North 5.8 mph - N/A Snow Light Snow
8:35 AM 28.8 °F 21.7 °F 27.5 °F 95% 29.67 in 2.5 mi North 6.9 mph - N/A Snow Light Snow
8:55 AM 28.8 °F 22.6 °F 27.5 °F 95% 29.67 in 2.0 mi North 5.8 mph - N/A Snow Light Snow
9:15 AM 29.1 °F 20.6 °F 27.5 °F 94% 29.67 in 3.0 mi North 9.2 mph - N/A Snow Light Snow
9:35 AM 29.3 °F 22.3 °F 28.0 °F 95% 29.67 in 1.8 mi North 6.9 mph - N/A Snow Light Snow
9:55 AM 30.0 °F 24.1 °F 27.9 °F 92% 29.67 in 3.0 mi North 5.8 mph - N/A Snow Light Snow
10:15 AM 30.2 °F 24.3 °F 28.4 °F 93% 29.66 in 4.0 mi NNW 5.8 mph - N/A Snow Light Snow
10:35 AM 30.7 °F 23.3 °F 28.8 °F 92% 29.66 in 4.0 mi NNW 8.1 mph - 0.01 in Snow Light Snow
10:55 AM 30.7 °F 24.1 °F 28.8 °F 92% 29.66 in 2.5 mi NNW 6.9 mph - 0.01 in Snow Light Snow
11:15 AM 30.9 °F 22.8 °F 28.2 °F 90% 29.67 in 4.0 mi NNW 9.2 mph - N/A Snow Light Snow
11:35 AM 31.3 °F 23.9 °F 28.4 °F 89% 29.67 in 5.0 mi NNW 8.1 mph - N/A Snow Light Snow
11:55 AM 31.8 °F 22.8 °F 28.2 °F 87% 29.67 in 5.0 mi NNW 11.5 mph - N/A Snow Light Snow
12:15 PM 32.0 °F 23.6 °F 28.4 °F 87% 29.67 in 4.0 mi NNW 10.4 mph - 0.03 in Snow Light Snow
12:35 PM 32.0 °F 24.2 °F 27.1 °F 82% 29.67 in 2.5 mi NNW 9.2 mph - 0.06 in Snow Light Snow
12:55 PM 32.0 °F 22.5 °F 26.4 °F 80% 29.67 in 5.0 mi NNW 12.7 mph - 0.08 in Snow Light Snow
1:15 PM 32.0 °F 22.5 °F 27.0 °F 82% 29.67 in 2.5 mi NW 12.7 mph - N/A   Light Drizzle
1:35 PM 32.0 °F 23.6 °F 27.3 °F 83% 29.67 in 2.5 mi NW 10.4 mph - 0.01 in Snow Light Snow
1:55 PM 32.0 °F 23.6 °F 26.6 °F 80% 29.67 in 3.0 mi NW 10.4 mph - 0.01 in Snow Light Snow
2:15 PM 31.5 °F 21.4 °F 26.1 °F 80% 29.67 in 3.0 mi NW 13.8 mph 18.4 mph N/A Snow Light Snow
2:35 PM 31.6 °F 23.7 °F 25.5 °F 78% 29.68 in 5.0 mi NW 9.2 mph - N/A Snow Light Snow
2:55 PM 30.7 °F 20.4 °F 24.8 °F 79% 29.68 in 5.0 mi NW 13.8 mph 18.4 mph N/A   Overcast
3:15 PM 30.0 °F 19.5 °F 23.9 °F 78% 29.69 in 3.0 mi NW 13.8 mph - N/A Snow Light Snow
3:35 PM 29.3 °F 18.2 °F 23.4 °F 78% 29.69 in 2.5 mi NW 15.0 mph 21.9 mph N/A Snow Light Snow
3:55 PM 29.1 °F 17.5 °F 22.6 °F 77% 29.70 in 2.5 mi NNW 16.1 mph 23.0 mph N/A Snow Light Snow
4:15 PM 28.6 °F 19.3 °F 22.5 °F 78% 29.71 in 2.5 mi NW 10.4 mph - N/A Snow Light Snow
4:35 PM 28.0 °F 18.6 °F 22.5 °F 80% 29.72 in 3.0 mi NW 10.4 mph 18.4 mph N/A Snow Light Snow
4:55 PM 27.5 °F 18.0 °F 22.1 °F 80% 29.72 in 2.0 mi WNW 10.4 mph - N/A Snow Light Snow
5:15 PM 27.1 °F 17.5 °F 21.7 °F 80% 29.73 in 4.0 mi NW 10.4 mph 17.3 mph N/A Snow Light Snow
5:35 PM 27.0 °F 16.7 °F 21.2 °F 79% 29.74 in 5.0 mi NW 11.5 mph - N/A Snow Light Snow
5:55 PM 26.6 °F 16.8 °F 21.4 °F 81% 29.75 in 2.0 mi NW 10.4 mph 18.4 mph N/A Snow Light Snow
6:15 PM 26.6 °F 16.8 °F 21.2 °F 80% 29.76 in 4.0 mi NW 10.4 mph 18.4 mph N/A Snow Light Snow
6:35 PM 26.4 °F 16.0 °F 21.6 °F 82% 29.77 in 2.5 mi NW 11.5 mph - N/A Snow Light Snow
6:55 PM 26.2 °F 17.8 °F 21.7 °F 83% 29.78 in 3.0 mi NW 8.1 mph - N/A Snow Light Snow
7:15 PM 26.2 °F 17.8 °F 21.6 °F 82% 29.79 in 4.0 mi WNW 8.1 mph - N/A Snow Light Snow
7:35 PM 25.7 °F 16.4 °F 21.2 °F 83% 29.79 in 5.0 mi WNW 9.2 mph - N/A Snow Light Snow
7:55 PM 25.7 °F 15.7 °F 21.2 °F 83% 29.79 in 5.0 mi WNW 10.4 mph - N/A Snow Light Snow
8:15 PM 25.7 °F 17.1 °F 21.2 °F 83% 29.80 in 7.0 mi WNW 8.1 mph - N/A Snow Light Snow
8:35 PM 25.7 °F 16.4 °F 21.6 °F 84% 29.80 in 5.0 mi WNW 9.2 mph - N/A Snow Light Snow
8:55 PM 25.7 °F 18.0 °F 21.7 °F 85% 29.80 in 5.0 mi WNW 6.9 mph - N/A Snow Light Snow
9:15 PM 25.7 °F 20.1 °F 21.7 °F 85% 29.80 in 5.0 mi WNW 4.6 mph - N/A Snow Light Snow
9:35 PM 25.7 °F 18.0 °F 21.7 °F 85% 29.81 in 7.0 mi WNW 6.9 mph - N/A Snow Light Snow
9:55 PM 25.5 °F 16.9 °F 21.6 °F 85% 29.81 in 7.0 mi WNW 8.1 mph - N/A Snow Light Snow
10:15 PM 24.8 °F 17.9 °F 21.2 °F 86% 29.81 in 7.0 mi West 5.8 mph - N/A Snow Light Snow
10:35 PM 24.8 °F 16.1 °F 21.4 °F 87% 29.81 in 7.0 mi West 8.1 mph - N/A Snow Light Snow
10:55 PM 25.0 °F 14.8 °F 22.1 °F 89% 29.82 in 7.0 mi WNW 10.4 mph - N/A Snow Light Snow
11:15 PM 25.2 °F 18.3 °F 22.5 °F 89% 29.82 in 7.0 mi West 5.8 mph - N/A Snow Light Snow
11:35 PM 25.3 °F 16.0 °F 23.0 °F 91% 29.82 in 7.0 mi WNW 9.2 mph - N/A Snow Light Snow
11:55 PM 25.3 °F 17.6 °F 22.8 °F 90% 29.82 in 5.0 mi WNW 6.9 mph - N/A Snow Light Snow